Amateur Radio Satellites - All Passes

Search period start: 18 May 2013 08:52
Search period end: 19 May 2013 08:52
Location: Doughton Park, 36.4224°N, 81.1835°W

Satellite Date Start Highest point End Downlink Frequencies (MHz)
Time Altitude Azimuth
Saudisat 1A 18 May 09:24:15 09:25:22 11° 318° (NW) 09:26:28 436.775 MHz
SO-67 18 May 09:24:23 09:27:54 55° 284° (WNW) 09:31:24 435.3500 MHz FM
SO-50 18 May 09:47:05 09:51:19 31° 113° (ESE) 09:55:30 436.795 FM
JAS-2 18 May 09:47:20 09:50:52 15° 87° (E) 09:54:12 435.800 - 435.900 CW/SSB, 435.910 FM
HO-68 18 May 10:03:19 10:09:27 30° 97° (E) 10:15:34 435.675 MHz FM
PCSat 18 May 10:03:30 10:08:19 32° 305° (NW) 10:13:10 145.825 MHz
JAS-1B 18 May 10:19:54 10:25:20 32° 294° (WNW) 10:30:20 435.800 - 435.900 CW/SSB
KITSAT 1 18 May 10:24:25 10:32:31 75° 245° (WSW) 10:40:36 435.175 FM
Oscar 11 18 May 10:31:28 10:35:02 24° 96° (E) 10:38:34 145.825 FM, Beacon 2401.500 USB
Sapphire 18 May 10:37:36 10:41:23 19° 310° (NW) 10:45:11 437.095 MHz 1200 baud AX-25 AFSK
ISS 18 May 10:39:43 10:41:44 15° 25° (NNE) 10:43:46 145.800 FM
OPAL 18 May 10:42:34 10:45:25 15° 94° (E) 10:48:14 ?
SO-50 18 May 11:27:45 11:31:54 28° 308° (NW) 11:36:01 436.795 FM
JAS-2 18 May 11:29:42 11:36:50 79° 285° (WNW) 11:43:04 435.800 - 435.900 CW/SSB, 435.910 FM
HO-68 18 May 11:50:30 11:57:15 46° 293° (WNW) 12:03:59 435.675 MHz FM
Oscar 11 18 May 12:07:34 12:11:10 26° 290° (WNW) 12:14:45 145.825 FM, Beacon 2401.500 USB
ISS 18 May 12:15:28 12:18:51 83° 222° (SW) 12:22:13 145.800 FM
OPAL 18 May 12:19:43 12:24:36 53° 289° (WNW) 12:29:25 ?
KITSAT 1 18 May 12:24:12 12:26:33 11° 261° (W) 12:28:54 435.175 FM
MaSat-1 18 May 12:37:14 12:39:42 18° 54° (NE) 12:41:51 437.345 MHz
Oscar 19 18 May 13:01:08 13:02:15 11° 61° (ENE) 13:03:22 437.125 CW, 437.150 USB
JAS-2 18 May 13:17:36 13:20:29 13° 305° (NW) 13:23:15 435.800 - 435.900 CW/SSB, 435.910 FM
UOSAT-12 18 May 13:17:36 13:22:06 86° 119° (ESE) 13:26:40 437.025 FM, 437.400 FM
AO-27 18 May 13:34:14 13:37:58 21° 66° (ENE) 13:41:43 436.795 MHz FM
Oscar 16 18 May 13:35:48 13:40:12 29° 68° (ENE) 13:44:38 437.025 USB, Beacon 2401.1428
ITAMSAT 1 18 May 13:41:46 13:45:48 24° 67° (ENE) 13:49:51 435.822 SSB
MaSat-1 18 May 14:20:08 14:21:28 12° 260° (W) 14:22:43 437.345 MHz
Uribyol 2 18 May 14:22:43 14:27:48 62° 74° (ENE) 14:32:56 436.500 FM
Oscar 19 18 May 14:35:38 14:40:49 86° 257° (WSW) 14:46:04 437.125 CW, 437.150 USB
PANSAT 18 May 14:45:01 14:47:52 20° 169° (SSE) 14:50:43 not established
UOSAT-12 18 May 15:01:14 15:02:54 12° 317° (NW) 15:04:34 437.025 FM, 437.400 FM
Uosat F 18 May 15:07:01 15:10:48 22° 67° (ENE) 15:14:37 435.120 FM
Gurwin Techsat 1B 18 May 15:11:04 15:14:50 20° 66° (ENE) 15:18:37 435.225 FM
AO-27 18 May 15:12:16 15:17:10 43° 261° (W) 15:22:06 436.795 MHz FM
Oscar 16 18 May 15:14:57 15:19:28 30° 263° (W) 15:24:01 437.025 USB, Beacon 2401.1428
AO-Echo 18 May 15:17:13 15:22:07 65° 75° (ENE) 15:26:54 ?
ITAMSAT 1 18 May 15:20:19 15:25:04 37° 262° (W) 15:29:51 435.822 SSB
AO-7 18 May 15:32:34 15:36:53 15° 52° (NE) 15:41:13 29.400 - 29.500 MHz
RS-15 18 May 15:36:58 15:42:27 14° 97° (E) 15:47:49 29.354 - 29.394 USB, Beacon 29.352 USB
Uribyol 2 18 May 16:05:16 16:07:41 13° 268° (W) 16:10:07 436.500 FM
Saudisat 1A 18 May 16:10:26 16:14:42 39° 54° (NE) 16:18:52 436.775 MHz
PANSAT 18 May 16:24:31 16:27:44 25° 181° (S) 16:30:57 not established
TMSAT-1 18 May 16:30:08 16:35:24 76° 75° (ENE) 16:40:42 436.925 FM
Uosat F 18 May 16:44:45 16:49:21 37° 262° (W) 16:54:00 435.120 FM
Gurwin Techsat 1B 18 May 16:49:22 16:54:26 46° 261° (W) 16:59:33 435.225 FM
AO-Echo 18 May 16:59:46 17:01:16 11° 268° (W) 17:02:46 ?
PCSat 18 May 17:11:14 17:14:45 17° 48° (NE) 17:18:15 145.825 MHz
AO-7 18 May 17:20:03 17:28:18 76° 70° (ENE) 17:36:36 29.400 - 29.500 MHz
RS-15 18 May 17:40:51 17:52:55 74° 115° (ESE) 18:04:29 29.354 - 29.394 USB, Beacon 29.352 USB
Sapphire 18 May 17:43:11 17:47:52 29° 54° (NE) 17:52:32 437.095 MHz 1200 baud AX-25 AFSK
Saudisat 1A 18 May 17:50:53 17:54:05 19° 250° (WSW) 17:57:14 436.775 MHz
PANSAT 18 May 18:05:00 18:07:34 17° 194° (SSW) 18:10:09 not established
TMSAT-1 18 May 18:14:29 18:15:51 11° 270° (W) 18:17:13 436.925 FM
SO-50 18 May 18:22:21 18:25:08 16° 46° (NE) 18:27:53 436.795 FM
PCSat 18 May 18:53:17 18:58:42 68° 246° (WSW) 19:04:03 145.825 MHz
JAS-1B 18 May 19:09:14 19:17:00 31° 65° (ENE) 19:23:57 435.800 - 435.900 CW/SSB
AO-7 18 May 19:16:06 19:21:45 20° 267° (W) 19:27:28 29.400 - 29.500 MHz
STRAND 1 18 May 19:24:51 19:29:46 45° 99° (E) 19:34:40 ?
Sapphire 18 May 19:26:24 19:31:19 36° 251° (WSW) 19:36:12 437.095 MHz 1200 baud AX-25 AFSK
Hamsat 18 May 19:37:19 19:41:29 68° 76° (ENE) 19:45:41 145.90 MHz
RS-15 18 May 19:55:48 20:06:20 35° 317° (NW) 20:16:32 29.354 - 29.394 USB, Beacon 29.352 USB
SO-67 18 May 19:57:55 20:01:08 32° 73° (ENE) 20:04:22 435.3500 MHz FM
SO-50 18 May 20:01:41 20:06:08 57° 243° (WSW) 20:10:30 436.795 FM
HO-68 18 May 20:31:04 20:35:38 19° 58° (ENE) 20:40:12 435.675 MHz FM
JAS-1B 18 May 20:57:31 21:07:03 63° 258° (WSW) 21:15:28 435.800 - 435.900 CW/SSB
STRAND 1 18 May 21:04:59 21:08:36 20° 294° (WNW) 21:12:14 ?
Oscar 11 18 May 21:25:40 21:28:07 15° 66° (ENE) 21:30:34 145.825 FM, Beacon 2401.500 USB
SO-67 18 May 21:33:18 21:34:42 12° 267° (W) 21:36:06 435.3500 MHz FM
JAS-2 18 May 21:37:00 21:43:53 40° 67° (ENE) 21:51:03 435.800 - 435.900 CW/SSB, 435.910 FM
UOSAT-12 18 May 21:49:54 21:54:09 36° 54° (NE) 21:58:24 437.025 FM, 437.400 FM
OPAL 18 May 21:54:35 21:58:37 23° 65° (ENE) 22:02:37 ?
HO-68 18 May 22:15:22 22:22:30 79° 255° (WSW) 22:29:40 435.675 MHz FM
RS-15 18 May 22:18:15 22:23:53 14° 351° (N) 22:29:26 29.354 - 29.394 USB, Beacon 29.352 USB
KITSAT 1 18 May 22:57:14 23:02:43 20° 103° (ESE) 23:08:13 435.175 FM
Oscar 11 18 May 22:59:52 23:03:57 42° 261° (W) 23:08:04 145.825 FM, Beacon 2401.500 USB
JAS-2 18 May 23:21:46 23:28:43 41° 264° (W) 23:36:03 435.800 - 435.900 CW/SSB, 435.910 FM
UOSAT-12 18 May 23:30:35 23:34:05 22° 249° (WSW) 23:37:35 437.025 FM, 437.400 FM
OPAL 18 May 23:32:21 23:37:13 40° 259° (W) 23:42:06 ?
HO-68 19 May 00:09:39 00:11:07 11° 271° (W) 00:12:35 435.675 MHz FM
RS-15 19 May 00:34:50 00:42:48 21° 29° (NNE) 00:50:33 29.354 - 29.394 USB, Beacon 29.352 USB
KITSAT 1 19 May 00:49:11 00:57:13 75° 299° (WNW) 01:05:21 435.175 FM
MaSat-1 19 May 01:28:54 01:29:17 10° 99° (E) 01:29:41 437.345 MHz
Oscar 16 19 May 01:52:03 01:53:57 12° 91° (E) 01:55:51 437.025 USB, Beacon 2401.1428
Uribyol 2 19 May 02:38:39 02:43:05 28° 96° (E) 02:47:30 436.500 FM
Oscar 10/S400 19 May 02:40:42 06:24:55 23° 79° (E) 08:21:02 145.825 - 145.975 CW/USB, Beacon 145.810 USB
RS-15 19 May 02:46:45 02:57:50 67° 56° (ENE) 03:08:37 29.354 - 29.394 USB, Beacon 29.352 USB
KITSAT 1 19 May 02:48:51 02:54:03 18° 321° (NW) 02:59:18 435.175 FM
Oscar 19 19 May 02:50:13 02:55:07 41° 99° (E) 02:59:57 437.125 CW, 437.150 USB
MaSat-1 19 May 03:03:32 03:10:54 70° 111° (ESE) 03:17:10 437.345 MHz
ISS 19 May 03:21:51 03:22:57 11° 127° (SE) 03:24:04 145.800 FM
AO-Echo 19 May 03:27:35 03:31:27 25° 96° (E) 03:35:21 ?
AO-27 19 May 03:27:35 03:32:50 84° 103° (ESE) 03:38:04 436.795 MHz FM
Oscar 16 19 May 03:28:36 03:33:46 69° 286° (WNW) 03:38:52 437.025 USB, Beacon 2401.1428
ITAMSAT 1 19 May 03:35:19 03:40:34 85° 284° (WNW) 03:45:48 435.822 SSB
Uribyol 2 19 May 04:17:57 04:22:32 32° 291° (WNW) 04:27:06 436.500 FM
Oscar 19 19 May 04:30:20 04:34:09 21° 294° (WNW) 04:37:57 437.125 CW, 437.150 USB
MaSat-1 19 May 04:48:08 04:53:24 22° 303° (WNW) 04:58:04 437.345 MHz
TMSAT-1 19 May 04:48:57 04:53:52 37° 98° (E) 04:58:44 436.925 FM
Uosat F 19 May 04:54:37 04:59:40 83° 103° (ESE) 05:04:42 435.120 FM
ISS 19 May 04:56:00 04:59:16 59° 321° (NW) 05:02:35 145.800 FM
RS-15 19 May 05:00:20 05:09:12 30° 256° (WSW) 05:18:01 29.354 - 29.394 USB, Beacon 29.352 USB
AO-Echo 19 May 05:06:08 05:10:12 29° 290° (WNW) 05:14:20 ?
Gurwin Techsat 1B 19 May 05:07:57 05:13:17 88° 103° (ESE) 05:18:36 435.225 FM
AO-27 19 May 05:10:09 05:11:36 11° 299° (WNW) 05:13:04 436.795 MHz FM
AO-7 19 May 05:25:17 05:32:20 29° 97° (E) 05:39:19 29.400 - 29.500 MHz
Saudisat 1A 19 May 06:16:26 06:19:38 19° 110° (ESE) 06:22:51 436.775 MHz
TMSAT-1 19 May 06:29:21 06:33:33 25° 293° (WNW) 06:37:45 436.925 FM
ISS 19 May 06:35:24 06:36:35 11° 339° (NNW) 06:37:47 145.800 FM
Uosat F 19 May 06:36:44 06:37:44 11° 299° (WNW) 06:38:45 435.120 FM
STRAND 1 19 May 06:38:27 06:43:20 50° 72° (ENE) 06:48:16 ?
Gurwin Techsat 1B 19 May 06:51:17 06:52:28 11° 299° (WNW) 06:53:38 435.225 FM
AO-7 19 May 07:17:17 07:25:23 56° 293° (WNW) 07:33:28 29.400 - 29.500 MHz
Hamsat 19 May 07:27:41 07:30:17 16° 93° (E) 07:32:54 145.90 MHz
PCSat 19 May 07:50:41 07:54:47 22° 106° (ESE) 07:58:54 145.825 MHz
Saudisat 1A 19 May 07:54:42 07:59:00 41° 305° (NW) 08:03:22 436.775 MHz
STRAND 1 19 May 08:19:40 08:22:48 16° 267° (W) 08:25:57 ?
Sapphire 19 May 08:22:18 08:27:21 42° 111° (ESE) 08:32:26 437.095 MHz 1200 baud AX-25 AFSK

Developed and maintained by Chris Peat, Heavens-Above GmbH. Please read the updated FAQ before sending e-mail. Imprint. DLR
